STARLINK-11518, 62462

Orbit data source: Space-Track

STARLINK-11518, 62462 is a payload satellite owned by SpaceX/Seattle (US) in LEO that was launched on Tue, 31 Dec 2024 UTC via an FALCON 9 launch vehicle from the Air Force Eastern Test Range (AFETR). Payload-class satellites include a variety of spacecraft equipped with specific instruments for various scientific and technological missions. These include communications satellites like Starlink; space stations such as the ISS; scientific satellites like the Hubble; Earth observation satellites from companies like Planet Labs, Umbra, and HawkEye 360; GPS; miniature CubeSats for education and research; and military/defense satellites.

Loading next visibility...
Identifier
62462, 2024-254A
Orbit
LEO
Country
Flag of USUS
Related business
Manufacturer
SpaceX/Seattle
Mission
Operational Commercial Communications
Bus & Motor
STARLINK V2MD, Unknown motor
Mass
960 kg wet, ~910 kg dry
Launch date (UTC)
2024-12-31 (1 year ago)
Launch vehicle
FALCON 9
Launch site
Air Force Eastern Test Range (AFETR)
Object type
Payload
Rocket body
Debris
Shape & HBR
Box + 2 Pan, 18.1 m
Radar Cross Section
36.964 m², Large (>1 m²)

Expand to show TLE details & history
Last TLE update: 14 hours ago

TLE from 14 hours ago
0 STARLINK-11518
1 62462U 24254A   26125.70329315  .00213418  00000-0  16210-2 0  9994
2 62462  42.9997 239.7130 0000517 289.6847  70.3965 15.70888778 78378
Epoch: 2026-05-05T16:52Z
TLE epoch observation values (Epoch: 2026-05-05T16:52:44.528Z)
Latitude
0.00001°
Longitude
122.95314°
Altitude
356.01 km
Speed
7.697 km/s
True Right ascension
15h 58m 51s
True Declination
0° 00' 00"
Sunlit
Object was in full shadow at epoch
Visualization orbit readout
Latitude
Unknown
Longitude
Unknown
Altitude
Unknown
Speed
Unknown
Apparent Right ascension
Unknown
Apparent Declination
Unknown
Sunlit
N/A
Visualization observer readout
Local Sidereal Time
14:22:50
Azimuth
Unknown
Elevation
Unknown
Doppler factor
Unknown
Orbital elements
Apogee altitude
358.686 km
Perigee altitude
357.989 km
Semi-major axis
6,736.474 km
Eccentricity
0.00005
Inclination
42.9997°
RAAN
239.713°
Arg. of periapsis
289.6847°
True anomaly
70.40208°
Mean anomaly
70.3965°
Eccentric anomaly
70.39929°
Mean motion
3.92549 °/min
Orbital period
91.71 mins
BSTAR
0.001621
Loading maneuver chart data...
Computing Atmospheric mass density...
Loading historical data...
Loading historical data...
Loading historical data...
Loading historical data...
Loading historical data...
Loading historical data...
Loading historical data...

Documentation

Showing up to 5 results
|